Theta_e
310 313 314 314 312 308 312 310 311 309 311 313 313 313 313 313 311 313 312 311 310 310 307 305 304 305 307 317 327 330 332 333 333 330 330 330 330 330 330 329 330 329 328 328
312 312 312 310 307 309 310 310 311 311 310 312 312 314 314 308 309 308 308 308 308 309 309 308 308 306 305 307 314 323 327 330 332 331 329 330 330 330 329 329 329 329 329 329
311 310 309 309 309 310 310 311 311 312 309 308 309 312 309 308 309 309 309 309 309 309 310 310 309 309 309 306 305 311 318 324 327 330 329 329 329 329 329 329 329 329 329 329
310 306 309 310 310 311 311 309 311 311 312 312 308 310 310 308 311 312 312 312 311 310 310 310 310 309 309 310 308 304 307 315 321 325 328 328 327 328 328 328 328 328 328 328
310 308 309 310 311 309 311 309 311 311 313 312 312 311 310 308 313 313 311 311 310 310 310 309 308 307 307 308 310 313 313 312 314 320 324 325 327 327 328 328 328 329 328 327
310 307 309 309 307 309 308 310 310 310 312 312 312 311 310 309 313 312 311 310 310 309 309 308 307 307 307 307 308 308 309 311 317 319 321 323 324 325 325 325 326 327 328 327
311 310 309 309 310 308 309 312 312 312 313 312 306 309 310 307 311 313 312 310 309 309 310 309 308 307 306 306 306 306 306 306 307 309 311 315 318 319 320 320 320 321 321 321
312 312 311 310 311 312 311 311 313 315 312 311 307 311 311 306 307 310 310 309 309 309 309 308 307 306 305 305 305 305 305 305 305 306 306 307 307 308 309 309 310 313 314 316
311 309 309 308 308 311 310 310 308 310 303 314 310 310 308 307 309 310 310 310 310 309 308 307 305 305 304 304 303 303 303 302 303 303 303 304 304 305 305 305 305 306 306 306
309 311 309 309 308 308 309 308 311 310 318 316 309 310 312 310 311 311 310 311 310 308 307 306 305 304 303 303 303 302 302 302 302 302 303 303 302 302 302 302 302 302 302 303
309 313 311 309 311 312 308 309 308 310 311 319 313 310 309 311 312 312 311 310 310 308 307 306 304 303 303 302 302 301 301 300 301 301 301 302 302 302 303 302 302 302 302 302
310 312 315 312 308 307 308 309 310 312 311 308 311 313 308 311 313 311 310 308 309 307 306 305 303 303 302 301 301 300 299 299 299 299 300 300 300 300 300 300 300 301 301 301
311 314 317 314 311 308 309 308 309 309 312 316 318 312 308 310 310 310 309 309 307 306 305 304 303 303 302 301 300 299 297 297 297 298 298 297 297 297 297 297 297 297 298 299
310 311 314 312 311 312 312 309 308 310 314 313 311 311 311 310 310 309 309 309 308 306 304 304 303 301 300 299 299 298 296 295 295 295 295 295 295 294 294 295 295 295 295 296
311 315 312 313 312 310 312 311 309 310 311 311 311 310 312 311 311 310 309 308 306 304 303 302 302 300 299 298 297 296 295 294 293 293 293 293 293 293 293 293 294 294 294 294
311 315 312 313 312 312 313 311 311 311 311 310 310 310 310 311 310 309 308 306 306 304 302 300 299 299 298 296 295 294 293 293 293 292 292 292 292 291 291 292 292 292 292 292
314 313 315 317 312 313 317 314 311 311 311 311 311 311 309 311 309 309 309 306 304 302 300 299 298 297 296 295 293 293 292 292 292 292 291 291 291 290 290 290 290 291 291 291
312 313 315 314 315 320 314 302 310 311 311 310 310 310 310 309 309 309 307 305 302 300 297 296 296 295 294 292 292 291 291 291 291 291 291 290 290 289 289 289 289 289 289 289
311 313 311 316 318 316 310 302 309 312 313 310 310 309 308 306 306 304 303 303 301 297 296 295 294 293 292 291 291 291 291 290 290 290 289 289 288 288 288 288 288 288 288 288
307 307 316 308 319 320 311 302 303 307 316 309 308 308 305 304 309 308 301 297 295 294 294 293 293 292 291 290 290 289 289 288 288 287 286 287 286 286 286 285 285 286 285 286
310 310 313 312 315 313 305 298 299 314 315 304 307 306 304 307 306 302 298 296 294 293 292 292 291 291 289 288 287 287 286 285 284 284 284 284 284 283 283 282 282 282 282 282
310 310 312 309 314 315 298 297 305 305 297 300 304 303 302 298 299 299 297 295 294 292 291 290 290 288 286 284 284 283 282 281 281 281 281 281 281 281 281 280 281 281 282 282
310 310 311 310 312 300 297 299 297 299 300 299 301 300 299 299 298 296 294 293 292 291 289 287 286 284 282 281 281 280 279 279 278 278 278 278 278 278 278 278 278 280 282 283
300 297 306 306 302 299 296 296 297 299 300 298 298 298 298 298 295 292 292 291 290 287 285 283 281 281 280 279 278 277 276 276 275 275 276 275 274 275 275 277 277 278 280 281
301 298 300 301 295 296 296 297 297 297 296 294 295 295 294 294 293 292 291 289 287 284 281 280 279 278 277 276 276 275 274 274 273 273 273 272 273 273 273 274 275 276 277 279
295 298 302 306 298 300 299 295 296 296 295 294 293 291 290 291 291 289 288 285 282 280 278 277 276 274 274 275 275 275 273 272 271 270 270 271 270 272 272 273 274 275 277 279
Wind_Speed
1 7 14 17 10 2 10 7 7 2 2 3 6 8 8 3 5 7 5 5 4 5 4 4 5 8 13 18 22 23 22 21 19 24 25 25 27 26 27 28 26 25 26 26
6 14 8 10 9 6 9 8 5 3 2 2 2 9 6 4 2 4 7 4 4 4 5 8 6 4 2 9 14 17 19 18 20 18 22 20 19 23 26 27 31 30 29 27
10 2 12 7 7 10 2 8 6 4 4 3 2 5 2 3 5 4 5 3 4 5 6 8 11 11 8 4 5 10 14 17 18 18 15 18 19 18 18 25 27 29 29 30
3 3 11 11 9 8 6 4 7 11 6 2 2 3 3 2 5 6 5 5 6 8 8 10 13 14 13 11 8 5 8 9 12 14 15 15 17 18 19 18 21 22 25 27
5 10 10 8 7 6 3 7 7 4 4 1 2 4 4 5 4 4 6 8 10 9 11 11 14 14 15 15 16 15 12 7 4 8 12 12 14 14 14 14 15 17 18 23
5 1 3 3 5 1 13 10 7 4 2 4 4 4 5 7 6 7 7 9 10 10 10 12 12 13 16 16 18 19 19 17 12 7 2 5 8 9 9 10 12 13 14 17
3 2 2 4 10 5 3 14 3 3 4 5 2 3 2 5 7 13 14 11 8 8 9 10 14 16 17 18 18 19 20 21 18 15 12 7 3 2 5 8 11 13 15 16
10 7 10 6 5 9 13 7 6 7 5 4 2 6 2 2 4 9 9 9 9 8 8 10 13 15 17 17 18 20 21 22 21 20 18 15 13 9 7 7 7 7 8 10
8 3 2 2 2 5 7 7 4 7 2 2 5 3 4 5 7 11 11 11 10 9 9 10 13 14 16 17 18 18 19 20 20 19 18 18 16 15 13 11 10 10 10 11
7 5 2 2 2 2 5 11 4 1 6 5 5 5 6 14 17 16 14 13 10 9 10 10 12 13 13 14 14 16 17 19 18 18 19 19 17 17 16 15 15 15 15 15
7 3 3 2 7 11 5 5 2 2 2 5 5 6 3 22 23 21 16 13 12 10 10 9 11 11 12 13 13 15 16 17 18 18 17 18 18 18 17 17 18 19 18 18
3 5 5 10 3 4 2 5 10 6 7 2 1 3 2 15 20 18 16 13 11 10 10 10 10 10 11 12 12 14 15 17 17 17 17 18 18 18 19 19 20 20 21 21
8 4 4 3 1 1 6 5 7 3 3 7 6 4 3 13 16 15 17 14 12 11 10 9 9 9 9 9 10 12 14 16 16 16 17 17 18 18 19 19 20 20 22 22
5 3 10 13 10 7 9 8 8 11 5 7 10 5 10 15 17 16 15 15 14 12 10 9 8 8 8 8 9 10 10 12 14 15 16 16 17 18 19 20 21 22 22 23
4 8 6 1 2 4 6 15 15 16 22 12 19 12 20 21 21 19 15 14 13 12 10 8 7 8 7 8 7 8 9 11 12 12 14 15 17 19 21 23 25 26 26 25
0 3 3 3 0 4 2 8 18 22 20 17 10 13 10 19 13 14 17 16 15 13 11 9 8 7 7 6 5 4 5 9 12 13 15 18 21 24 26 28 29 29 29 28
7 6 4 6 4 0 5 16 16 14 16 18 18 18 9 18 18 19 19 16 15 13 11 9 9 7 4 3 2 3 8 11 14 16 19 22 25 27 28 30 30 30 30 30
6 6 1 4 6 7 5 2 9 17 9 15 7 8 19 23 23 14 14 16 14 13 11 10 10 8 7 3 4 7 10 12 15 18 22 25 27 29 31 32 33 33 31 31
2 5 4 5 8 6 4 6 8 11 17 16 14 11 9 10 12 5 11 13 14 13 14 14 12 9 5 4 7 11 14 17 19 20 23 25 29 32 34 35 36 36 37 38
3 3 6 3 6 10 1 4 4 6 12 14 13 16 17 15 12 9 14 11 14 16 15 13 10 7 4 5 9 12 15 18 17 19 23 26 28 30 33 32 34 35 35 37
4 3 6 7 4 6 4 5 4 9 4 5 14 16 16 12 1 10 16 14 19 18 15 12 8 5 3 5 10 12 14 14 17 22 25 27 28 31 32 33 30 31 30 31
8 7 5 3 4 10 6 7 8 3 2 5 6 8 13 10 12 16 15 13 17 16 13 10 7 3 2 6 8 10 11 13 19 22 25 28 29 29 30 31 31 27 25 26
5 4 6 8 6 1 9 2 1 3 5 5 9 11 12 14 13 15 13 12 14 16 13 9 6 1 3 5 7 10 12 17 20 25 28 30 31 31 30 28 29 24 22 24
4 3 3 3 4 3 7 1 3 3 4 7 8 15 15 14 15 12 11 11 14 14 12 7 3 2 4 7 9 11 15 18 22 26 28 27 26 26 24 21 22 23 23 23
2 9 5 3 0 2 5 6 6 6 7 9 9 10 12 16 13 12 8 10 12 11 9 5 3 4 6 9 11 13 15 19 21 23 23 22 20 21 25 23 23 24 26 24
6 6 6 7 8 3 5 9 8 10 11 13 14 8 7 9 11 9 9 12 12 10 8 6 5 5 7 9 12 13 16 17 20 22 19 18 21 21 21 23 28 22 24 25
Wind_Direction
130 182 190 179 179 141 154 149 157 142 83 200 236 264 265 300 283 287 299 314 306 315 336 308 275 249 233 227 225 222 222 223 217 217 221 223 226 231 237 243 249 248 249 249
157 207 175 123 123 131 145 149 134 107 64 205 210 268 282 353 20 338 315 326 348 16 53 47 51 50 221 229 227 225 226 223 220 220 222 224 231 238 240 244 252 253 253 252
184 159 145 134 146 141 152 172 169 150 140 86 282 247 200 84 83 62 38 38 49 46 62 57 53 50 58 76 211 211 217 220 221 222 226 231 234 240 241 239 246 253 257 258
155 125 154 147 171 173 177 178 137 134 165 182 319 240 155 103 81 64 65 69 79 83 79 70 66 58 55 58 74 135 195 207 214 215 221 224 233 240 248 249 257 258 263 264
145 157 155 174 186 185 138 140 122 120 101 172 200 249 141 158 129 90 86 90 90 87 84 75 66 63 61 65 73 80 89 102 163 200 215 233 243 254 264 264 261 257 261 270
96 28 149 124 69 12 141 109 77 78 105 226 179 242 188 182 165 144 125 108 101 94 90 80 71 66 60 62 69 74 79 76 76 87 149 224 245 260 269 275 275 273 269 270
99 128 107 151 97 139 171 156 128 175 194 234 31 208 318 149 133 152 140 124 108 103 91 81 75 69 63 60 63 70 72 71 73 72 73 71 50 315 292 291 288 287 284 282
168 192 180 169 164 179 182 193 173 180 190 168 88 222 222 159 125 143 134 124 121 105 93 82 79 79 75 70 68 69 69 68 66 70 66 64 57 48 31 5 339 320 307 300
165 173 67 104 127 171 174 208 86 104 30 164 194 231 234 163 168 163 152 147 135 120 104 92 83 77 77 73 68 69 70 68 64 63 63 59 54 50 43 31 15 358 345 329
181 138 11 90 121 56 208 145 145 125 159 214 200 250 208 181 181 174 166 158 141 129 115 104 95 91 86 84 78 73 67 65 61 57 55 52 47 42 37 31 22 13 1 352
144 105 114 140 217 180 145 182 95 131 194 188 183 228 219 187 180 174 167 159 151 143 129 120 110 101 92 83 74 70 64 60 55 51 47 43 35 31 25 19 11 6 1 355
187 109 147 196 10 337 325 177 179 190 199 247 3 246 315 187 173 167 162 161 153 147 138 130 116 100 86 76 69 66 61 58 51 45 41 36 30 24 19 11 4 358 351 347
183 160 114 118 279 322 226 192 198 125 61 192 173 227 53 157 161 166 163 163 159 153 145 129 115 102 92 79 71 63 55 48 45 39 35 28 23 17 12 5 359 355 350 346
126 148 199 200 207 137 199 191 200 190 202 202 232 182 173 173 172 172 171 166 162 159 152 136 124 108 93 78 68 59 51 45 38 31 25 19 12 6 1 355 351 348 347 343
191 192 192 125 105 181 206 184 184 197 219 209 238 218 186 187 186 182 167 162 159 157 154 144 136 125 107 87 70 54 43 36 28 20 13 2 355 352 348 346 343 341 339 337
163 143 118 167 89 49 211 208 198 209 216 230 234 235 196 189 170 167 174 170 170 165 156 145 134 122 107 86 73 58 32 23 16 7 359 353 347 344 342 339 337 336 334 331
157 135 140 213 141 36 283 223 203 217 218 221 227 229 173 175 190 185 179 176 171 165 159 154 145 134 122 104 78 30 17 6 2 354 348 344 341 338 336 334 333 332 329 327
142 126 94 127 142 210 244 72 210 210 218 213 233 166 175 186 193 171 173 171 168 163 157 152 153 158 175 159 34 12 1 354 351 344 340 338 336 333 332 331 330 328 326 323
205 144 135 175 204 314 198 193 168 183 237 210 211 155 163 135 140 164 171 170 162 160 156 157 162 152 120 49 8 354 348 345 342 338 334 332 330 328 327 325 325 324 322 319
125 58 197 155 206 221 337 167 155 139 261 179 172 166 154 151 177 184 170 141 141 151 155 151 139 118 86 21 353 343 337 336 332 328 324 322 322 321 319 318 316 315 315 312
156 157 187 170 212 279 217 141 140 173 256 169 174 162 159 172 267 127 139 142 149 147 143 140 132 106 62 350 338 333 325 324 316 314 313 314 316 315 313 312 310 308 309 307
167 159 174 142 190 246 148 104 189 181 79 145 157 159 150 117 125 133 136 138 141 138 136 142 138 131 0 334 329 316 312 308 312 314 314 315 316 314 312 312 309 304 301 298
203 205 172 190 203 76 183 29 176 153 144 175 150 151 134 131 139 142 142 140 142 145 143 148 150 218 306 317 319 314 313 316 314 313 314 316 316 316 317 311 307 303 300 295
235 200 222 157 176 185 190 163 181 174 140 139 133 141 140 144 148 140 139 142 145 148 148 155 177 250 299 311 313 313 317 315 314 315 316 316 314 314 313 306 300 294 293 292
158 154 168 284 294 74 229 224 170 138 123 118 125 139 140 143 155 152 148 145 146 150 159 178 208 267 297 312 315 318 317 316 318 316 315 314 313 310 308 303 298 292 287 283
187 167 190 222 179 162 212 187 165 155 161 157 144 134 130 149 152 139 140 151 157 163 180 200 228 264 289 303 310 316 318 318 319 317 314 311 312 310 306 305 305 300 293 294